| time (UTC) | temp C | wind direction | speed KPH | gust KPH | rain 1hr cm | rain 24hr cm | rain mn cm | humidity % | barometer mb |
| 20260901235020 | 32 | 0.0 | 1.6 | 0.00 | 0.00 | 0.00 | 60 | 1015.2 | |
| 20260901234021 | 32 | 0.0 | 0.0 | 0.00 | 0.00 | 0.00 | 59 | 1015.2 | |
| 20260901233020 | 33 | 0.0 | 3.2 | 0.00 | 0.00 | 0.00 | 55 | 1015.2 | |
| 20260901232021 | 33 | 189 | 0.0 | 3.2 | 0.00 | 0.00 | 0.00 | 51 | 1015.3 |
| 20260901231101 | 34 | 189 | 0.0 | 3.2 | 0.00 | 0.00 | 0.00 | 48 | 1015.2 |
| 20260901230015 | 34 | 186 | 0.0 | 8.0 | 0.00 | 0.00 | 0.00 | 48 | 1015.3 |
| 20260901225016 | 35 | 199 | 0.0 | 9.7 | 0.00 | 0.00 | 0.00 | 47 | 1015.3 |
| 20260901224020 | 35 | 178 | 1.6 | 11.3 | 0.00 | 0.00 | 0.00 | 47 | 1015.3 |
| 20260901223021 | 35 | 189 | 0.0 | 3.2 | 0.00 | 0.00 | 0.00 | 48 | 1015.2 |
| 20260901222021 | 35 | 202 | 0.0 | 9.7 | 0.00 | 0.00 | 0.00 | 47 | 1015.2 |
| 20260901221020 | 35 | 155 | 0.0 | 12.9 | 0.00 | 0.00 | 0.00 | 47 | 1015.1 |
| 20260901220021 | 35 | 173 | 0.0 | 4.8 | 0.00 | 0.00 | 0.00 | 47 | 1015.0 |
| 20260901215015 | 35 | 172 | 0.0 | 9.7 | 0.00 | 0.00 | 0.00 | 44 | 1015.1 |
| 20260901214020 | 35 | 0.0 | 3.2 | 0.00 | 0.00 | 0.00 | 46 | 1015.1 | |
| 20260901213021 | 35 | 163 | 0.0 | 3.2 | 0.00 | 0.00 | 0.00 | 47 | 1015.1 |
| 20260901212020 | 35 | 187 | 0.0 | 8.0 | 0.00 | 0.00 | 0.00 | 46 | 1015.2 |
| 20260901211020 | 36 | 181 | 0.0 | 6.4 | 0.00 | 0.00 | 0.00 | 44 | 1015.3 |
| 20260901210020 | 35 | 180 | 0.0 | 6.4 | 0.00 | 0.00 | 0.00 | 45 | 1015.3 |
| 20260901205020 | 35 | 177 | 0.0 | 6.4 | 0.00 | 0.00 | 0.00 | 46 | 1015.4 |
| 20260901204015 | 36 | 153 | 0.0 | 4.8 | 0.00 | 0.00 | 0.00 | 46 | 1015.6 |
| 20260901203020 | 36 | 182 | 1.6 | 8.0 | 0.00 | 0.00 | 0.00 | 47 | 1015.6 |
| 20260901202020 | 35 | 199 | 1.6 | 9.7 | 0.00 | 0.00 | 0.00 | 45 | 1015.7 |
| 20260901201020 | 36 | 181 | 0.0 | 4.8 | 0.00 | 0.00 | 0.00 | 44 | 1015.8 |
| 20260901200020 | 35 | 166 | 1.6 | 9.7 | 0.00 | 0.00 | 0.00 | 45 | 1015.9 |
| 20260901195020 | 35 | 192 | 1.6 | 8.0 | 0.00 | 0.00 | 0.00 | 47 | 1015.9 |
| 20260901194016 | 35 | 194 | 0.0 | 3.2 | 0.00 | 0.00 | 0.00 | 46 | 1016.1 |
| 20260901193016 | 35 | 157 | 0.0 | 8.0 | 0.00 | 0.00 | 0.00 | 43 | 1016.2 |
| 20260901192020 | 35 | 207 | 1.6 | 8.0 | 0.00 | 0.00 | 0.00 | 46 | 1016.3 |
| 20260901191020 | 35 | 272 | 3.2 | 11.3 | 0.00 | 0.00 | 0.00 | 47 | 1016.4 |
| 20260901190020 | 36 | 207 | 1.6 | 9.7 | 0.00 | 0.00 | 0.00 | 48 | 1016.5 |
| 20260901185020 | 35 | 190 | 0.0 | 11.3 | 0.00 | 0.00 | 0.00 | 47 | 1016.6 |
| 20260901184020 | 35 | 206 | 1.6 | 9.7 | 0.00 | 0.00 | 0.00 | 47 | 1016.7 |
| 20260901183015 | 35 | 198 | 3.2 | 11.3 | 0.00 | 0.00 | 0.00 | 50 | 1016.8 |
| 20260901182020 | 35 | 207 | 3.2 | 6.4 | 0.00 | 0.00 | 0.00 | 51 | 1016.8 |
| 20260901181020 | 35 | 211 | 1.6 | 8.0 | 0.00 | 0.00 | 0.00 | 50 | 1017.0 |
| 20260901180020 | 34 | 184 | 0.0 | 9.7 | 0.00 | 0.00 | 0.00 | 52 | 1017.1 |
| 20260901175020 | 35 | 229 | 1.6 | 11.3 | 0.00 | 0.00 | 0.00 | 52 | 1017.2 |
| 20260901174020 | 34 | 270 | 4.8 | 14.5 | 0.00 | 0.00 | 0.00 | 53 | 1017.4 |
| 20260901173020 | 34 | 277 | 4.8 | 12.9 | 0.00 | 0.00 | 0.00 | 53 | 1017.5 |
| 20260901172015 | 34 | 276 | 3.2 | 14.5 | 0.00 | 0.00 | 0.00 | 51 | 1017.6 |
| 20260901171021 | 34 | 274 | 4.8 | 14.5 | 0.00 | 0.00 | 0.00 | 54 | 1017.7 |
| 20260901170020 | 34 | 260 | 4.8 | 11.3 | 0.00 | 0.00 | 0.00 | 53 | 1017.8 |
| 20260901165020 | 33 | 214 | 4.8 | 12.9 | 0.00 | 0.00 | 0.00 | 55 | 1017.9 |
| 20260901164022 | 33 | 217 | 1.6 | 11.3 | 0.00 | 0.00 | 0.00 | 55 | 1018.0 |
| 20260901163020 | 33 | 244 | 3.2 | 9.7 | 0.00 | 0.00 | 0.00 | 56 | 1018.2 |
| 20260901162015 | 33 | 222 | 3.2 | 9.7 | 0.00 | 0.00 | 0.00 | 56 | 1018.2 |
| 20260901161015 | 33 | 218 | 3.2 | 9.7 | 0.00 | 0.00 | 0.00 | 57 | 1018.3 |
| 20260901160101 | 32 | 262 | 4.8 | 12.9 | 0.00 | 0.00 | 0.00 | 61 | 1018.4 |
| 20260901155020 | 32 | 267 | 4.8 | 12.9 | 0.00 | 0.00 | 0.00 | 63 | 1018.4 |
| 20260901154021 | 32 | 224 | 1.6 | 11.3 | 0.00 | 0.00 | 0.00 | 61 | 1018.3 |
| 20260901153018 | 31 | 283 | 3.2 | 11.3 | 0.00 | 0.00 | 0.00 | 64 | 1018.3 |
| 20260901152021 | 31 | 285 | 1.6 | 9.7 | 0.00 | 0.00 | 0.00 | 63 | 1018.3 |
| 20260901151015 | 31 | 266 | 1.6 | 9.7 | 0.00 | 0.00 | 0.00 | 66 | 1018.3 |
| 20260901150021 | 30 | 247 | 1.6 | 9.7 | 0.00 | 0.00 | 0.00 | 68 | 1018.3 |
| 20260901145021 | 30 | 216 | 1.6 | 6.4 | 0.00 | 0.00 | 0.00 | 68 | 1018.4 |
| 20260901144020 | 30 | 215 | 1.6 | 6.4 | 0.00 | 0.00 | 0.00 | 68 | 1018.3 |
| 20260901143101 | 30 | 214 | 1.6 | 8.0 | 0.00 | 0.00 | 0.00 | 70 | 1018.3 |
| 20260901142020 | 29 | 223 | 1.6 | 8.0 | 0.00 | 0.00 | 0.00 | 71 | 1018.3 |
| 20260901141015 | 28 | 205 | 1.6 | 6.4 | 0.00 | 0.00 | 0.00 | 73 | 1018.3 |
| 20260901140015 | 27 | 191 | 3.2 | 11.3 | 0.00 | 0.00 | 0.00 | 73 | 1018.4 |
| 20260901135020 | 27 | 186 | 1.6 | 6.4 | 0.00 | 0.00 | 0.00 | 77 | 1018.2 |
| 20260901134020 | 26 | 184 | 0.0 | 3.2 | 0.00 | 0.00 | 0.00 | 78 | 1018.2 |
| 20260901133042 | 26 | 183 | 1.6 | 6.4 | 0.00 | 0.00 | 0.00 | 80 | 1018.3 |
| 20260901132022 | 26 | 183 | 0.0 | 3.2 | 0.00 | 0.00 | 0.00 | 81 | 1018.3 |
| 20260901131017 | 25 | 0.0 | 0.0 | 0.00 | 0.00 | 0.00 | 85 | 1018.3 | |
| 20260901130022 | 25 | 0.0 | 0.0 | 0.00 | 0.00 | 0.00 | 88 | 1018.4 | |
| 20260901125022 | 24 | 0.0 | 0.0 | 0.00 | 0.00 | 0.00 | 89 | 1018.3 | |
| 20260901124022 | 23 | 0.0 | 0.0 | 0.00 | 0.00 | 0.00 | 89 | 1018.3 | |
| 20260901123022 | 22 | 0.0 | 0.0 | 0.00 | 0.00 | 0.00 | 92 | 1018.2 | |
| 20260901122043 | 22 | 0.0 | 0.0 | 0.00 | 0.00 | 0.00 | 93 | 1018.1 | |
| 20260901121017 | 22 | 0.0 | 0.0 | 0.00 | 0.00 | 0.00 | 93 | 1018.1 | |
| 20260901120017 | 21 | 0.0 | 0.0 | 0.00 | 0.00 | 0.00 | 93 | 1017.9 | |
| 20260901115022 | 22 | 0.0 | 0.0 | 0.00 | 0.00 | 0.00 | 93 | 1017.8 | |
| 20260901114022 | 22 | 0.0 | 0.0 | 0.00 | 0.00 | 0.00 | 93 | 1017.8 | |
| 20260901113022 | 22 | 0.0 | 0.0 | 0.00 | 0.00 | 0.00 | 93 | 1017.6 | |
| 20260901112023 | 21 | 0.0 | 0.0 | 0.00 | 0.00 | 0.00 | 93 | 1017.5 | |
| 20260901111022 | 21 | 0.0 | 0.0 | 0.00 | 0.00 | 0.00 | 93 | 1017.5 | |
| 20260901110058 | 21 | 0.0 | 0.0 | 0.00 | 0.00 | 0.00 | 93 | 1017.3 | |
| 20260901105022 | 21 | 0.0 | 0.0 | 0.00 | 0.00 | 0.00 | 93 | 1017.3 | |
| 20260901104022 | 21 | 0.0 | 0.0 | 0.00 | 0.00 | 0.00 | 93 | 1017.3 | |
| 20260901103024 | 21 | 0.0 | 0.0 | 0.00 | 0.00 | 0.00 | 93 | 1017.3 | |
| 20260901102022 | 21 | 0.0 | 0.0 | 0.00 | 0.00 | 0.00 | 93 | 1017.3 | |
| 20260901101022 | 21 | 0.0 | 0.0 | 0.00 | 0.00 | 0.00 | 93 | 1017.2 | |
| 20260901100017 | 21 | 0.0 | 0.0 | 0.00 | 0.00 | 0.00 | 93 | 1017.2 | |
| 20260901095037 | 21 | 0.0 | 0.0 | 0.00 | 0.00 | 0.00 | 93 | 1017.1 | |
| 20260901094022 | 21 | 0.0 | 0.0 | 0.00 | 0.00 | 0.00 | 93 | 1017.1 | |
| 20260901093022 | 21 | 0.0 | 0.0 | 0.00 | 0.00 | 0.00 | 93 | 1017.1 | |
| 20260901092023 | 21 | 0.0 | 0.0 | 0.00 | 0.00 | 0.00 | 93 | 1017.0 | |
| 20260901091022 | 21 | 0.0 | 0.0 | 0.00 | 0.00 | 0.00 | 92 | 1016.9 | |
| 20260901090022 | 21 | 0.0 | 0.0 | 0.00 | 0.00 | 0.00 | 92 | 1016.8 | |
| 20260901085017 | 21 | 0.0 | 0.0 | 0.00 | 0.00 | 0.00 | 92 | 1016.8 | |
| 20260901084022 | 21 | 0.0 | 0.0 | 0.00 | 0.00 | 0.00 | 92 | 1016.7 | |
| 20260901083022 | 21 | 0.0 | 0.0 | 0.00 | 0.00 | 0.00 | 91 | 1016.7 | |
| 20260901082022 | 21 | 0.0 | 0.0 | 0.00 | 0.00 | 0.00 | 92 | 1016.7 | |
| 20260901081022 | 21 | 0.0 | 0.0 | 0.00 | 0.00 | 0.00 | 92 | 1016.6 | |
| 20260901080022 | 21 | 0.0 | 0.0 | 0.00 | 0.00 | 0.00 | 92 | 1016.6 | |
| 20260901075023 | 21 | 0.0 | 0.0 | 0.00 | 0.00 | 0.00 | 92 | 1016.6 | |
| 20260901074017 | 21 | 0.0 | 0.0 | 0.00 | 0.00 | 0.00 | 91 | 1016.6 | |
| 20260901073022 | 22 | 0.0 | 0.0 | 0.00 | 0.00 | 0.00 | 90 | 1016.5 | |
| 20260901072022 | 22 | 0.0 | 0.0 | 0.00 | 0.00 | 0.00 | 91 | 1016.5 | |
| 20260901071023 | 22 | 0.0 | 0.0 | 0.00 | 0.00 | 0.00 | 91 | 1016.4 | |
| 20260901070022 | 22 | 0.0 | 0.0 | 0.00 | 0.00 | 0.00 | 91 | 1016.4 | |
| 20260901065022 | 22 | 0.0 | 0.0 | 0.00 | 0.00 | 0.00 | 91 | 1016.4 | |
| 20260901064037 | 22 | 0.0 | 0.0 | 0.00 | 0.00 | 0.00 | 90 | 1016.4 | |
| 20260901063020 | 22 | 0.0 | 0.0 | 0.00 | 0.00 | 0.00 | 91 | 1016.5 | |
| 20260901062023 | 22 | 0.0 | 0.0 | 0.00 | 0.00 | 0.00 | 91 | 1016.5 | |
| 20260901061022 | 22 | 0.0 | 0.0 | 0.00 | 0.00 | 0.00 | 90 | 1016.4 | |
| 20260901060042 | 22 | 0.0 | 0.0 | 0.00 | 0.00 | 0.00 | 90 | 1016.4 | |
| 20260901055022 | 23 | 0.0 | 0.0 | 0.00 | 0.00 | 0.00 | 89 | 1016.4 | |
| 20260901054103 | 23 | 0.0 | 0.0 | 0.00 | 0.00 | 0.00 | 88 | 1016.4 | |
| 20260901053017 | 23 | 0.0 | 0.0 | 0.00 | 0.00 | 0.00 | 88 | 1016.4 | |
| 20260901052022 | 23 | 0.0 | 0.0 | 0.00 | 0.00 | 0.00 | 87 | 1016.5 | |
| 20260901051102 | 24 | 0.0 | 0.0 | 0.00 | 0.00 | 0.00 | 85 | 1016.5 | |
| 20260901050022 | 25 | 0.0 | 0.0 | 0.00 | 0.00 | 0.00 | 84 | 1016.5 | |
| 20260901045021 | 25 | 0.0 | 1.6 | 0.00 | 0.00 | 0.00 | 84 | 1016.4 | |
| 20260901044021 | 24 | 0.0 | 0.0 | 0.00 | 0.00 | 0.00 | 85 | 1016.4 | |
| 20260901043021 | 24 | 0.0 | 0.0 | 0.00 | 0.00 | 0.00 | 85 | 1016.4 | |
| 20260901042022 | 24 | 0.0 | 0.0 | 0.00 | 0.00 | 0.00 | 85 | 1016.3 | |
| 20260901041021 | 25 | 0.0 | 0.0 | 0.00 | 0.00 | 0.00 | 85 | 1016.3 | |
| 20260901040041 | 25 | 0.0 | 0.0 | 0.00 | 0.00 | 0.00 | 84 | 1016.4 | |
| 20260901035016 | 25 | 0.0 | 0.0 | 0.00 | 0.00 | 0.00 | 84 | 1016.4 | |
| 20260901034021 | 25 | 0.0 | 0.0 | 0.00 | 0.00 | 0.00 | 83 | 1016.4 | |
| 20260901033021 | 25 | 0.0 | 0.0 | 0.00 | 0.00 | 0.00 | 82 | 1016.5 | |
| 20260901032021 | 25 | 0.0 | 0.0 | 0.00 | 0.00 | 0.00 | 82 | 1016.5 | |
| 20260901031021 | 26 | 0.0 | 0.0 | 0.00 | 0.00 | 0.00 | 81 | 1016.5 | |
| 20260901030021 | 26 | 0.0 | 0.0 | 0.00 | 0.00 | 0.00 | 81 | 1016.6 | |
| 20260901025016 | 26 | 0.0 | 0.0 | 0.00 | 0.00 | 0.00 | 81 | 1016.6 | |
| 20260901024015 | 26 | 0.0 | 0.0 | 0.00 | 0.00 | 0.00 | 82 | 1016.6 | |
| 20260901023021 | 25 | 0.0 | 0.0 | 0.00 | 0.00 | 0.00 | 84 | 1016.5 | |
| 20260901022021 | 25 | 0.0 | 0.0 | 0.00 | 0.00 | 0.00 | 84 | 1016.5 | |
| 20260901021021 | 25 | 0.0 | 0.0 | 0.00 | 0.00 | 0.00 | 83 | 1016.5 | |
| 20260901020019 | 26 | 0.0 | 0.0 | 0.00 | 0.00 | 0.00 | 81 | 1016.2 | |
| 20260901015021 | 26 | 0.0 | 0.0 | 0.00 | 0.00 | 0.00 | 81 | 1016.2 | |
| 20260901014015 | 26 | 0.0 | 0.0 | 0.00 | 0.00 | 0.00 | 82 | 1016.1 | |
| 20260901013041 | 26 | 0.0 | 0.0 | 0.00 | 0.00 | 0.00 | 80 | 1016.0 | |
| 20260901012041 | 26 | 0.0 | 0.0 | 0.00 | 0.00 | 0.00 | 78 | 1015.9 | |
| 20260901011046 | 27 | 0.0 | 0.0 | 0.00 | 0.00 | 0.00 | 79 | 1015.8 | |
| 20260901010021 | 27 | 0.0 | 0.0 | 0.00 | 0.00 | 0.00 | 76 | 1015.7 | |
| 20260901005021 | 27 | 0.0 | 0.0 | 0.00 | 0.00 | 0.00 | 77 | 1015.7 | |
| 20260901004016 | 27 | 0.0 | 0.0 | 0.00 | 0.00 | 0.00 | 74 | 1015.6 | |
| 20260901003035 | 29 | 0.0 | 0.0 | 0.00 | 0.00 | 0.00 | 68 | 1015.5 | |
| 20260901002020 | 29 | 0.0 | 0.0 | 0.00 | 0.00 | 0.00 | 66 | 1015.4 | |
| 20260901001020 | 30 | 0.0 | 0.0 | 0.00 | 0.00 | 0.00 | 64 | 1015.4 | |
| 20260901000021 | 31 | 182 | 0.0 | 3.2 | 0.00 | 0.00 | 0.00 | 62 | 1015.5 |